Williamsburg, VA

5:53 PM EDT on March 27, 2017 (GMT -0400)
Williamsburg-jamestown

Weather History for KJGG - March, 2013

Change the Weather History Date:

Monday, March 11, 2013

  Actual Average Record
Temperature  
Mean Temperature 54 °F -  
Max Temperature 69 °F 61 °F 82 °F (1990)
Min Temperature 39 °F 34 °F 13 °F (1960)
Degree Days  
Heating Degree Days 11    
Growing Degree Days 4 (Base 50)    
Moisture  
Dew Point 46 °F    
Average Humidity 77    
Maximum Humidity 100    
Minimum Humidity 46    
Precipitation  
Precipitation 0.00 in - - ()
Sea Level Pressure  
Sea Level Pressure 30.15 in    
Wind  
Wind Speed 6 mph (SSE)    
Max Wind Speed 16 mph    
Max Gust Speed 20 mph    
Visibility 8 miles    
Events      
Averages and records for this station are not official NWS values.
T = Trace of Precipitation, MM = Missing Value Source: NWS Daily Summary

Daily Weather History Graph

Daily Weather History Graph

Search for Another Location

Airport or City:

Trip Planner

Search our weather history database for the weather conditions in past years. The results will help you decide how hot, cold, wet, or windy it might be!

Date:

Astronomy

Mar. 11, 2013 Rise Set
Actual Time 7:23 AM EDT 7:10 PM EDT
Civil Twilight 6:57 AM EDT 7:36 PM EDT
Nautical Twilight 6:27 AM EDT 8:06 PM EDT
Astronomical Twilight 5:56 AM EDT 8:37 PM EDT
Moon 6:56 AM EDT (3/11) 7:19 PM EDT (3/11)
Length of Visible Light 12h 39m
Length of Day
11h 47m
Waning Crescent, 0% of the Moon is Illuminated
Mar 11
Waning Crescent
Mar 11
New
Mar 19
First Quarter
Mar 27
Full
Apr 3
Last Quarter

Hourly Weather History & Observations

Time (EDT) Temp. Windchill Dew Point Humidity Pressure Visibility Wind Dir Wind Speed Gust Speed Precip Events Conditions
12:15 AM 42.8 °F 41.1 °F 41.0 °F 93% 30.29 in 7.0 mi SE 3.5 mph - N/A   Clear
12:35 AM 42.8 °F 41.1 °F 41.0 °F 93% 30.29 in 7.0 mi SE 3.5 mph - N/A   Clear
1:15 AM 42.8 °F 40.1 °F 41.0 °F 93% 30.29 in 7.0 mi SSE 4.6 mph - N/A   Clear
1:35 AM 42.8 °F 39.3 °F 42.8 °F 100% 30.29 in 7.0 mi SSE 5.8 mph - N/A   Clear
1:55 AM 42.8 °F 39.3 °F 41.0 °F 93% 30.28 in 7.0 mi SSE 5.8 mph - N/A   Clear
2:15 AM 42.8 °F 40.1 °F 41.0 °F 93% 30.27 in 5.0 mi SE 4.6 mph - N/A   Clear
2:35 AM 42.8 °F 39.3 °F 41.0 °F 93% 30.27 in 5.0 mi SE 5.8 mph - N/A   Clear
2:55 AM 42.8 °F 39.3 °F 41.0 °F 93% 30.26 in 5.0 mi SE 5.8 mph - N/A   Clear
3:15 AM 42.8 °F 38.6 °F 41.0 °F 93% 30.25 in 5.0 mi SSE 6.9 mph - N/A   Clear
3:35 AM 42.8 °F 39.3 °F 41.0 °F 93% 30.24 in 5.0 mi SSE 5.8 mph - N/A   Clear
3:55 AM 42.8 °F 38.6 °F 41.0 °F 93% 30.23 in 5.0 mi SSE 6.9 mph - N/A   Clear
4:15 AM 42.8 °F 39.3 °F 42.8 °F 100% 30.23 in 5.0 mi SSE 5.8 mph - N/A   Clear
4:35 AM 42.8 °F 39.3 °F 42.8 °F 100% 30.22 in 5.0 mi SSE 5.8 mph - N/A   Clear
4:55 AM 42.8 °F 38.6 °F 42.8 °F 100% 30.21 in 5.0 mi SSE 6.9 mph - N/A   Clear
5:15 AM 44.6 °F 40.2 °F 42.8 °F 93% 30.21 in 5.0 mi SSE 8.1 mph - N/A   Scattered Clouds
5:35 AM 44.6 °F 41.4 °F 42.8 °F 93% 30.21 in 5.0 mi SSE 5.8 mph - N/A   Scattered Clouds
5:55 AM 42.8 °F - 41.0 °F 93% 30.22 in 4.0 mi Calm Calm - N/A   Mostly Cloudy
6:15 AM 42.8 °F - 41.0 °F 93% 30.22 in 3.0 mi Calm Calm - N/A   Scattered Clouds
6:35 AM 39.2 °F 37.0 °F 39.2 °F 100% 30.21 in 2.0 mi SSE 3.5 mph - N/A   Overcast
6:55 AM 39.2 °F - 37.4 °F 93% 30.22 in 1.2 mi Calm Calm - N/A   Overcast
7:15 AM 39.2 °F 37.0 °F 37.4 °F 93% 30.21 in 2.0 mi SSE 3.5 mph - N/A   Mostly Cloudy
7:35 AM 39.2 °F 37.0 °F 37.4 °F 93% 30.21 in 1.5 mi SSE 3.5 mph - N/A   Unknown
7:55 AM 39.2 °F 35.9 °F 37.4 °F 93% 30.20 in 4.0 mi SE 4.6 mph - N/A   Clear
8:15 AM 42.8 °F 39.3 °F 41.0 °F 93% 30.21 in 7.0 mi SSE 5.8 mph - N/A   Clear
8:35 AM 44.6 °F 42.2 °F 44.6 °F 100% 30.23 in 5.0 mi SSE 4.6 mph - N/A   Clear
8:55 AM 46.4 °F 44.3 °F 44.6 °F 93% 30.23 in 7.0 mi South 4.6 mph - N/A   Clear
9:15 AM 48.2 °F - 46.4 °F 93% 30.22 in 10.0 mi SSE 5.8 mph - N/A   Clear
9:35 AM 48.2 °F - 46.4 °F 93% 30.22 in 10.0 mi SSE 6.9 mph - N/A   Clear
9:55 AM 48.2 °F - 46.4 °F 93% 30.21 in 10.0 mi SSE 6.9 mph - N/A   Clear
10:15 AM 50.0 °F - 46.4 °F 87% 30.21 in 10.0 mi SSE 6.9 mph - N/A   Clear
10:35 AM 51.8 °F - 48.2 °F 88% 30.20 in 10.0 mi SE 6.9 mph - N/A   Clear
10:55 AM 55.4 °F - 48.2 °F 77% 30.19 in 10.0 mi SE 6.9 mph - N/A   Clear
11:15 AM 55.4 °F - 48.2 °F 77% 30.18 in 10.0 mi SE 6.9 mph - N/A   Clear
11:35 AM 57.2 °F - 48.2 °F 72% 30.18 in 10.0 mi SE 6.9 mph - N/A   Clear
11:55 AM 59.0 °F - 48.2 °F 67% 30.18 in 10.0 mi SSE 6.9 mph - N/A   Clear
12:15 PM 60.8 °F - 50.0 °F 68% 30.17 in 10.0 mi SE 9.2 mph - N/A   Clear
12:35 PM 62.6 °F - 51.8 °F 68% 30.17 in 10.0 mi SE 8.1 mph - N/A   Clear
12:55 PM 64.4 °F - 51.8 °F 64% 30.16 in 10.0 mi SE 10.4 mph - N/A   Clear
1:15 PM 66.2 °F - 51.8 °F 60% 30.15 in 10.0 mi SSE 9.2 mph - N/A   Clear
1:35 PM 64.4 °F - 51.8 °F 64% 30.13 in 10.0 mi SE 9.2 mph - N/A   Scattered Clouds
1:55 PM 68.0 °F - 51.8 °F 56% 30.12 in 10.0 mi SSE 8.1 mph - N/A   Scattered Clouds
2:15 PM 68.0 °F - 51.8 °F 56% 30.11 in 10.0 mi SSE 8.1 mph - N/A   Clear
2:35 PM 69.8 °F - 51.8 °F 53% 30.10 in 10.0 mi SSE 9.2 mph - N/A   Clear
2:55 PM 68.0 °F - 50.0 °F 52% 30.09 in 10.0 mi SSE 8.1 mph - N/A   Scattered Clouds
3:15 PM 69.8 °F - 48.2 °F 46% 30.09 in 10.0 mi SSE 9.2 mph - N/A   Scattered Clouds
3:35 PM 66.2 °F - 50.0 °F 56% 30.08 in 10.0 mi SSE 9.2 mph - N/A   Mostly Cloudy
3:55 PM 66.2 °F - 50.0 °F 56% 30.07 in 10.0 mi SSE 8.1 mph - N/A   Mostly Cloudy
4:15 PM 69.8 °F - 50.0 °F 49% 30.06 in 10.0 mi SSE 8.1 mph - N/A   Scattered Clouds
4:35 PM 66.2 °F - 50.0 °F 56% 30.05 in 10.0 mi SSE 8.1 mph - N/A   Mostly Cloudy
4:55 PM 68.0 °F - 50.0 °F 52% 30.04 in 10.0 mi SSE 9.2 mph - N/A   Mostly Cloudy
5:15 PM 64.4 °F - 50.0 °F 59% 30.03 in 10.0 mi SSE 10.4 mph - N/A   Scattered Clouds
5:35 PM 64.4 °F - 50.0 °F 59% 30.03 in 10.0 mi SSE 11.5 mph 17.3 mph N/A   Scattered Clouds
5:55 PM 62.6 °F - 50.0 °F 63% 30.03 in 10.0 mi SSE 11.5 mph - N/A   Mostly Cloudy
6:15 PM 64.4 °F - 50.0 °F 59% 30.04 in 10.0 mi SSE 13.8 mph 18.4 mph N/A   Mostly Cloudy
6:35 PM 62.6 °F - 50.0 °F 63% 30.04 in 10.0 mi SSE 13.8 mph 17.3 mph N/A   Mostly Cloudy
6:55 PM 62.6 °F - 50.0 °F 63% 30.05 in 10.0 mi SSE 10.4 mph - N/A   Mostly Cloudy
7:15 PM 60.8 °F - 48.2 °F 63% 30.05 in 10.0 mi SSE 11.5 mph - N/A   Scattered Clouds
7:35 PM 57.2 °F - 48.2 °F 72% 30.03 in 10.0 mi SE 11.5 mph - N/A   Clear
7:55 PM 59.0 °F - 48.2 °F 67% 30.03 in 10.0 mi SSE 12.7 mph 19.6 mph N/A   Clear
8:15 PM 57.2 °F - 48.2 °F 72% 30.02 in 10.0 mi SSE 12.7 mph - N/A   Clear
8:35 PM 57.2 °F - 48.2 °F 72% 30.02 in 10.0 mi SSE 16.1 mph - N/A   Clear
8:55 PM 57.2 °F - 48.2 °F 72% 30.02 in 10.0 mi SSE 13.8 mph - N/A   Clear
9:15 PM 57.2 °F - 48.2 °F 72% 30.03 in 10.0 mi SSE 11.5 mph 18.4 mph N/A   Clear
9:35 PM 57.2 °F - 48.2 °F 72% 30.03 in 10.0 mi SSE 11.5 mph 17.3 mph N/A   Clear
9:55 PM 57.2 °F - 48.2 °F 72% 30.05 in 10.0 mi SSE 12.7 mph 16.1 mph N/A   Clear
10:15 PM 55.4 °F - 48.2 °F 77% 30.05 in 10.0 mi SSE 10.4 mph - N/A   Clear
10:35 PM 57.2 °F - 48.2 °F 72% 30.04 in 10.0 mi SSE 9.2 mph - N/A   Mostly Cloudy
10:55 PM 57.2 °F - 48.2 °F 72% 30.04 in 10.0 mi SSE 8.1 mph - N/A   Mostly Cloudy
11:15 PM 57.2 °F - 48.2 °F 72% 30.03 in 10.0 mi SSE 9.2 mph - N/A   Mostly Cloudy
11:35 PM 57.2 °F - 48.2 °F 72% 30.03 in 10.0 mi SSE 8.1 mph - N/A   Overcast
11:55 PM 57.2 °F - 48.2 °F 72% 30.03 in 10.0 mi SSE 6.9 mph - N/A   Overcast